TimeCDT,TemperatureF,Dew PointF,Humidity,Sea Level PressureIn,VisibilityMPH,Wind Direction,Wind SpeedMPH,Gust SpeedMPH,PrecipitationIn,Events,Conditions,WindDirDegrees,DateUTC
12:15 AM,53.4,52.5,97,30.14,7.0,Calm,Calm,-,N/A,,Clear,0,2013-10-24 05:15:00
12:35 AM,52.7,52.0,97,30.14,7.0,Calm,Calm,-,N/A,,Clear,0,2013-10-24 05:35:00
12:55 AM,52.7,52.0,97,30.13,7.0,Calm,Calm,-,N/A,,Clear,0,2013-10-24 05:55:00
1:15 AM,52.2,51.3,97,30.13,7.0,Calm,Calm,-,N/A,,Clear,0,2013-10-24 06:15:00
1:35 AM,52.0,51.1,97,30.13,7.0,Calm,Calm,-,N/A,,Clear,0,2013-10-24 06:35:00
1:55 AM,52.0,51.1,97,30.14,7.0,Calm,Calm,-,N/A,,Clear,0,2013-10-24 06:55:00
2:15 AM,51.8,50.9,97,30.14,7.0,Calm,Calm,-,N/A,,Clear,0,2013-10-24 07:15:00
2:35 AM,51.1,50.4,97,30.14,7.0,Calm,Calm,-,N/A,,Clear,0,2013-10-24 07:35:00
2:55 AM,50.9,50.0,97,30.14,7.0,Calm,Calm,-,N/A,,Clear,0,2013-10-24 07:55:00
3:15 AM,50.9,50.2,97,30.14,7.0,Calm,Calm,-,N/A,,Clear,0,2013-10-24 08:15:00
3:35 AM,50.4,49.3,96,30.14,7.0,Calm,Calm,-,N/A,,Clear,0,2013-10-24 08:35:00
3:55 AM,50.0,49.1,97,30.14,7.0,Calm,Calm,-,N/A,,Clear,0,2013-10-24 08:55:00
4:15 AM,50.0,49.1,97,30.14,7.0,Calm,Calm,-,N/A,,Clear,0,2013-10-24 09:15:00
4:35 AM,49.6,49.1,98,30.14,7.0,Calm,Calm,-,N/A,,Clear,0,2013-10-24 09:35:00
4:55 AM,48.9,48.2,97,30.14,5.0,Calm,Calm,-,N/A,,Clear,0,2013-10-24 09:55:00
5:15 AM,49.3,48.7,98,30.14,7.0,Calm,Calm,-,N/A,,Clear,0,2013-10-24 10:15:00
5:35 AM,48.9,48.4,98,30.15,7.0,Calm,Calm,-,N/A,,Clear,0,2013-10-24 10:35:00
5:55 AM,49.1,48.4,97,30.16,7.0,Calm,Calm,-,N/A,,Clear,0,2013-10-24 10:55:00
6:15 AM,48.6,48.0,98,30.16,7.0,Calm,Calm,-,N/A,,Clear,0,2013-10-24 11:15:00
6:35 AM,48.2,47.5,97,30.17,7.0,Calm,Calm,-,N/A,,Clear,0,2013-10-24 11:35:00
6:55 AM,48.4,47.8,98,30.18,7.0,Calm,Calm,-,N/A,,Clear,0,2013-10-24 11:55:00
7:15 AM,48.4,47.8,98,30.18,7.0,Calm,Calm,-,N/A,,Clear,0,2013-10-24 12:15:00
7:35 AM,48.2,47.5,97,30.19,7.0,Calm,Calm,-,N/A,,Clear,0,2013-10-24 12:35:00
7:55 AM,48.0,47.3,97,30.20,5.0,Calm,Calm,-,N/A,,Clear,0,2013-10-24 12:55:00
8:15 AM,50.0,49.3,97,30.20,5.0,Calm,Calm,-,N/A,,Clear,0,2013-10-24 13:15:00
8:35 AM,52.2,51.3,97,30.21,7.0,Calm,Calm,-,N/A,,Clear,0,2013-10-24 13:35:00
8:55 AM,55.8,53.6,92,30.22,7.0,Calm,Calm,-,N/A,,Clear,0,2013-10-24 13:55:00
9:15 AM,60.3,56.8,88,30.22,7.0,Calm,Calm,-,N/A,,Clear,0,2013-10-24 14:15:00
9:35 AM,64.9,57.0,75,30.23,5.0,Calm,Calm,-,N/A,,Haze,0,2013-10-24 14:35:00
9:55 AM,67.8,58.3,71,30.23,7.0,Calm,Calm,-,N/A,,Clear,0,2013-10-24 14:55:00
10:15 AM,70.0,57.6,65,30.23,7.0,Calm,Calm,-,N/A,,Clear,0,2013-10-24 15:15:00
10:35 AM,71.8,56.1,58,30.24,7.0,West,4.6,-,N/A,,Clear,260,2013-10-24 15:35:00
10:55 AM,74.3,56.5,54,30.24,7.0,WNW,3.5,-,N/A,,Clear,290,2013-10-24 15:55:00
11:15 AM,75.6,55.4,49,30.24,7.0,WNW,4.6,-,N/A,,Scattered Clouds,290,2013-10-24 16:15:00
11:35 AM,77.0,55.9,48,30.24,10.0,West,4.6,-,N/A,,Scattered Clouds,260,2013-10-24 16:35:00
11:55 AM,78.1,55.0,45,30.24,7.0,WSW,4.6,-,N/A,,Scattered Clouds,240,2013-10-24 16:55:00
12:15 PM,78.8,54.7,43,30.23,7.0,West,3.5,-,N/A,,Scattered Clouds,260,2013-10-24 17:15:00
12:35 PM,79.9,52.9,39,30.23,7.0,NW,5.8,-,N/A,,Scattered Clouds,310,2013-10-24 17:35:00
12:55 PM,80.4,53.4,39,30.23,7.0,NNW,4.6,-,N/A,,Scattered Clouds,330,2013-10-24 17:55:00
1:15 PM,80.6,54.0,40,30.22,7.0,Calm,Calm,-,N/A,,Scattered Clouds,0,2013-10-24 18:15:00
1:35 PM,81.7,55.8,41,30.20,7.0,WSW,4.6,-,N/A,,Scattered Clouds,240,2013-10-24 18:35:00
1:55 PM,81.7,54.7,39,30.20,7.0,NW,4.6,-,N/A,,Scattered Clouds,320,2013-10-24 18:55:00
2:15 PM,81.7,52.7,37,30.19,7.0,Calm,Calm,-,N/A,,Scattered Clouds,0,2013-10-24 19:15:00
2:35 PM,82.4,53.2,36,30.18,10.0,North,3.5,-,N/A,,Scattered Clouds,360,2013-10-24 19:35:00
2:55 PM,82.8,54.1,37,30.18,5.0,Calm,Calm,-,N/A,,Haze,0,2013-10-24 19:55:00
3:15 PM,83.1,52.2,34,30.18,7.0,Calm,Calm,-,N/A,,Scattered Clouds,0,2013-10-24 20:15:00
3:35 PM,82.8,52.9,36,30.17,10.0,Calm,Calm,-,N/A,,Scattered Clouds,0,2013-10-24 20:35:00
3:55 PM,83.5,52.3,34,30.17,7.0,Calm,Calm,-,N/A,,Clear,0,2013-10-24 20:55:00
4:15 PM,81.9,51.3,34,30.17,10.0,Calm,Calm,-,N/A,,Scattered Clouds,0,2013-10-24 21:15:00
4:35 PM,83.1,50.7,32,30.17,10.0,Calm,Calm,-,N/A,,Scattered Clouds,0,2013-10-24 21:35:00
4:55 PM,81.7,50.5,34,30.17,7.0,Calm,Calm,-,N/A,,Scattered Clouds,0,2013-10-24 21:55:00
5:15 PM,82.2,50.2,33,30.17,7.0,Calm,Calm,-,N/A,,Scattered Clouds,0,2013-10-24 22:15:00
5:35 PM,80.8,52.5,37,30.17,7.0,Calm,Calm,-,N/A,,Clear,0,2013-10-24 22:35:00
5:55 PM,76.6,61.2,59,30.17,7.0,Calm,Calm,-,N/A,,Clear,0,2013-10-24 22:55:00
6:15 PM,74.1,60.6,63,30.17,7.0,Calm,Calm,-,N/A,,Clear,0,2013-10-24 23:15:00
6:35 PM,69.3,61.2,75,30.17,10.0,Calm,Calm,-,N/A,,Clear,0,2013-10-24 23:35:00
6:55 PM,66.9,60.8,81,30.18,10.0,Calm,Calm,-,N/A,,Clear,0,2013-10-24 23:55:00
7:15 PM,65.8,60.1,82,30.18,10.0,Calm,Calm,-,N/A,,Clear,0,2013-10-25 00:15:00
7:35 PM,64.0,59.4,85,30.18,10.0,Calm,Calm,-,N/A,,Clear,0,2013-10-25 00:35:00
7:55 PM,61.7,58.3,89,30.19,7.0,Calm,Calm,-,N/A,,Clear,0,2013-10-25 00:55:00
8:15 PM,60.8,57.9,90,30.20,7.0,Calm,Calm,-,N/A,,Clear,0,2013-10-25 01:15:00
8:35 PM,59.9,57.4,91,30.20,7.0,Calm,Calm,-,N/A,,Clear,0,2013-10-25 01:35:00
8:55 PM,59.0,57.2,94,30.21,7.0,Calm,Calm,-,N/A,,Clear,0,2013-10-25 01:55:00
9:15 PM,58.1,56.3,94,30.22,7.0,Calm,Calm,-,N/A,,Clear,0,2013-10-25 02:15:00
9:35 PM,57.7,55.9,94,30.22,7.0,Calm,Calm,-,N/A,,Clear,0,2013-10-25 02:35:00
9:55 PM,57.2,55.8,95,30.23,7.0,Calm,Calm,-,N/A,,Clear,0,2013-10-25 02:55:00
10:15 PM,56.7,55.2,95,30.23,10.0,Calm,Calm,-,N/A,,Clear,0,2013-10-25 03:15:00
10:35 PM,56.5,55.2,96,30.23,7.0,Calm,Calm,-,N/A,,Clear,0,2013-10-25 03:35:00
10:55 PM,55.8,54.5,96,30.23,7.0,Calm,Calm,-,N/A,,Clear,0,2013-10-25 03:55:00
11:15 PM,56.1,55.2,97,30.23,7.0,Calm,Calm,-,N/A,,Clear,0,2013-10-25 04:15:00
11:35 PM,55.0,53.8,96,30.23,10.0,Calm,Calm,-,N/A,,Clear,0,2013-10-25 04:35:00
11:55 PM,54.7,53.6,96,30.23,7.0,Calm,Calm,-,N/A,,Clear,0,2013-10-25 04:55:00